Ketchikan, AK

3:48 AM AKST on January 21, 2019 (GMT -0900)
Ketchikan International

Weather History for PAKT - November, 2018

Change the Weather History Date:

Saturday, November 3, 2018

  Actual Average Record
Temperature  
Mean Temperature 48 °F -  
Max Temperature 51 °F 48 °F 65 °F (1962)
Min Temperature 46 °F 37 °F 22 °F (1973)
Degree Days  
Heating Degree Days 16    
Moisture  
Dew Point 47 °F    
Average Humidity 92    
Maximum Humidity 97    
Minimum Humidity 86    
Precipitation  
Precipitation 0.76 in - - ()
Sea Level Pressure  
Sea Level Pressure 29.56 in    
Wind  
Wind Speed 15 mph (SE)    
Max Wind Speed 28 mph    
Max Gust Speed 38 mph    
Visibility 6 miles    
Events Rain    
Averages and records for this station are not official NWS values.
T = Trace of Precipitation, MM = Missing Value Source: NWS Daily Summary

Daily Weather History Graph

Daily Weather History Graph

Search for Another Location

Airport or City:

Astronomy

Nov. 03, 2018 Rise Set
Actual Time 7:56 AM AKDT 5:03 PM AKDT
Civil Twilight 7:16 AM AKDT 5:42 PM AKDT
Nautical Twilight 6:33 AM AKDT 6:26 PM AKDT
Astronomical Twilight 5:50 AM AKDT 7:08 PM AKDT
Moon 2:22 AM AKDT (11/3) 4:14 PM AKDT (11/3)
Length of Visible Light 10h 25m
Length of Day
9h 07m
Waning Crescent, 17% of the Moon is Illuminated
Nov 3
Waning Crescent
Nov 7
New
Nov 15
First Quarter
Nov 22
Full
Nov 29
Last Quarter

Hourly Weather History & Observations

Time (AKDT) Temp. Windchill Dew Point Humidity Pressure Visibility Wind Dir Wind Speed Gust Speed Precip Events Conditions
12:19 AM 46.9 °F - 43.0 °F 86% 29.71 in 5.0 mi SE 27.6 mph 35.7 mph 0.04 in Rain Light Rain
12:45 AM 46.9 °F - 43.0 °F 86% 29.69 in 5.0 mi SE 25.3 mph 34.5 mph 0.09 in Rain Rain
12:53 AM 46.9 °F - 44.1 °F 90% 29.68 in 4.0 mi SE 23.0 mph 38.0 mph 0.12 in Rain Rain
1:31 AM 48.0 °F - 45.0 °F 89% 29.65 in 2.5 mi SE 21.9 mph 29.9 mph 0.14 in Rain Rain
1:53 AM 48.0 °F - 46.0 °F 93% 29.65 in 2.0 mi SE 19.6 mph 29.9 mph 0.25 in Rain Rain
2:28 AM 48.0 °F - 46.0 °F 93% 29.66 in 3.0 mi SSE 15.0 mph 25.3 mph 0.11 in Rain Rain
2:53 AM 48.0 °F - 46.0 °F 93% 29.66 in 3.0 mi SSE 12.7 mph 20.7 mph 0.14 in Rain Light Rain
3:11 AM 48.9 °F - 46.0 °F 90% 29.65 in 5.0 mi SSE 10.4 mph - 0.01 in Rain Light Rain
3:20 AM 48.9 °F - 46.0 °F 90% 29.65 in 7.0 mi SSE 8.1 mph - 0.01 in Rain Light Rain
3:53 AM 48.9 °F - 46.9 °F 93% 29.65 in 5.0 mi SSE 6.9 mph - 0.02 in Rain Light Rain
4:11 AM 48.9 °F - 46.9 °F 93% 29.64 in 10.0 mi SE 12.7 mph - 0.00 in   Overcast
4:53 AM 50.0 °F - 48.0 °F 93% 29.67 in 7.0 mi SE 11.5 mph - 0.00 in   Overcast
5:44 AM 51.1 °F - 48.9 °F 92% 29.65 in 9.0 mi SE 10.4 mph - N/A   Overcast
5:53 AM 51.1 °F - 48.9 °F 92% 29.65 in 6.0 mi SE 12.7 mph - N/A   Overcast
6:12 AM 51.1 °F - 48.9 °F 92% 29.65 in 4.0 mi SE 9.2 mph - N/A   Overcast
6:53 AM 50.0 °F - 48.2 °F 94% 29.65 in 5.0 mi ESE 9.2 mph - N/A   Overcast
7:53 AM 50.0 °F - 48.2 °F 94% 29.64 in 4.0 mi SE 10.4 mph - N/A Rain Light Rain
8:53 AM 51.8 °F - 48.2 °F 88% 29.62 in 3.0 mi ESE 11.5 mph - N/A Rain Light Rain
9:53 AM 50.0 °F - 48.2 °F 94% 29.61 in 6.0 mi SE 12.7 mph - N/A   Overcast
10:53 AM 51.1 °F - 48.9 °F 92% 29.60 in 4.0 mi SE 10.4 mph - N/A   Overcast
11:53 AM 51.8 °F - 48.2 °F 88% 29.58 in 9.0 mi SE 6.9 mph - N/A Rain Light Rain
12:53 PM 51.8 °F - 48.2 °F 88% 29.53 in 6.0 mi SE 9.2 mph - N/A Rain Light Rain
1:53 PM 50.0 °F - 48.2 °F 94% 29.48 in 6.0 mi SE 4.6 mph - N/A Rain Rain
2:53 PM 50.0 °F - 48.2 °F 94% 29.44 in 3.0 mi Calm Calm - N/A Rain Rain
3:53 PM 50.0 °F - 48.0 °F 93% 29.39 in 3.0 mi NW 6.9 mph - 0.17 in Rain Light Rain
4:53 PM 48.2 °F - 46.4 °F 93% 29.37 in 5.0 mi WNW 6.9 mph - N/A Rain Light Rain
5:53 PM 48.9 °F - 46.9 °F 93% 29.36 in 10.0 mi NNW 3.5 mph - 0.03 in Rain Light Rain
6:53 PM 48.9 °F - 48.0 °F 97% 29.36 in 7.0 mi Calm Calm - 0.00 in Rain Light Rain
7:53 PM 48.2 °F - 46.4 °F 93% 29.39 in 3.0 mi North 4.6 mph - N/A Rain Heavy Rain
8:53 PM 48.2 °F - 46.4 °F 93% 29.40 in 10.0 mi Variable 3.5 mph - N/A Rain Light Rain
9:53 PM 46.9 °F - 46.0 °F 97% 29.42 in 9.0 mi Calm Calm - 0.02 in Rain Light Rain
10:11 PM 48.0 °F - 46.0 °F 93% 29.43 in 10.0 mi Calm Calm - 0.00 in   Overcast
10:53 PM 48.0 °F - 46.0 °F 93% 29.46 in 10.0 mi SSE 4.6 mph - 0.01 in   Overcast
11:53 PM 46.0 °F 44.8 °F 45.0 °F 96% 29.49 in 10.0 mi SSE 3.5 mph - N/A   Scattered Clouds